User: anonymous   Login
Location: STAR School
(35.3054°N, 111.2976°W)
Time: 17:15:23
(UTC-07:00)
Language:

PCSat - Orbit

View from above orbital plane
View from above orbital plane
View from above satellite
View from above satellite

Ground track
Ground track

The orbit data is extracted from the following two-line orbital elements,

1 26931U 01043C   19110.21325949 -.00000012  00000-0  27077-4 0  9997
2 26931  67.0502 157.1640 0005957 278.3269  81.7157 14.30538838916468
Epoch (UTC): 20 April 2019 05:07:05
Eccentricity: 0.0005957
inclination: 67.0502°
perigee height: 785 km
apogee height: 794 km
right ascension of ascending node: 157.1640°
argument of perigee: 278.3269°
revolutions per day: 14.30538838
mean anomaly at epoch: 81.7157°
orbit number at epoch: 91646

The dashed part of the orbit path shows where the satellite is in the earth's shadow,  

DLR